Location: Springville
(37.3745°N, 89.2676°W)
Time: 23:33:01
(UTC+00:00)

COSMO-SKYMED 1 - Pass Details

Date: 29 October 2020
Orbit: 621 x 623 km, 97.9° (Epoch: 04 December)

Event Time Altitude Azimuth Distance (km) Brightness Sun altitude
Rises 23:32:41 0° 20° (NNE) 2,909 5.7 -6.8°
Reaches altitude 10° 23:34:59 10° 27° (NNE) 1,998 4.8 -7.2°
Maximum altitude 23:39:06 41° 98° (E) 898 3.0 -8.0°
Drops below altitude 10° 23:43:12 10° 170° (S) 1,983 5.2 -8.8°
Sets 23:45:28 0° 177° (S) 2,884 6.1 -9.3°
